Location: *
(46.3500°N, 10.9000°E)
Time: 09:24:29
(UTC+00:00)

Cosmos 2333 Rocket - Pass Details

Date: 09 April 2020
Orbit: 841 x 860 km, 70.8° (Epoch: 23 May)

Event Time Altitude Azimuth Distance (km) Brightness Sun altitude
Rises 23:36:09 0° 335° (NNW) 3,407 6.1 -35.5°
Reaches altitude 10° 23:38:40 10° 340° (NNW) 2,470 5.3 -35.4°
Enters shadow 23:42:29 39° 6° (N) 1,240 3.4 -35.3°
